Weather History for Hebron, NE

Change the Weather History Date:

Sunday, May 4, 2014

  Actual Average Record
Temperature  
Mean Temperature 64 °F -  
Max Temperature 79 °F 69 °F 90 °F (2012)
Min Temperature 49 °F 45 °F 32 °F (1967)
Degree Days  
Heating Degree Days 2    
Growing Degree Days 14 (Base 50)    
Moisture  
Dew Point 44 °F    
Average Humidity 53    
Maximum Humidity 77    
Minimum Humidity 30    
Precipitation  
Precipitation 0.00 in - - ()
Sea Level Pressure  
Sea Level Pressure 29.80 in    
Wind  
Wind Speed 9 mph (East)    
Max Wind Speed 16 mph    
Max Gust Speed 25 mph    
Visibility 10 miles    
Events      
Averages and records for this station are not official NWS values.
T = Trace of Precipitation, MM = Missing Value Source: NWS Daily Summary

Daily Weather History Graph

Daily Weather History Graph

Search for Another Location

Airport:

Trip Planner

Search our weather history database for the weather conditions in past years. The results will help you decide how hot, cold, wet, or windy it might be!

Date:

Astronomy

May. 04, 2014 Rise Set
Actual Time 6:26 AM CDT 8:28 PM CDT
Civil Twilight 5:56 AM CDT 8:58 PM CDT
Nautical Twilight 5:20 AM CDT 9:34 PM CDT
Astronomical Twilight 4:41 AM CDT 10:14 PM CDT
Moon 10:51 AM CDT (5/4) 12:34 AM CDT (5/4)
Length of Visible Light 15h 01m
Length of Day
14h 02m
Waxing Crescent, 28% of the Moon is Illuminated
May 4
Waxing Crescent
May 6
First Quarter
May 14
Full
May 21
Last Quarter
May 28
New

Hourly Weather History & Observations

Time (CDT) Temp. Dew Point Humidity Pressure Visibility Wind Dir Wind Speed Gust Speed Precip Events Conditions
12:15 AM 57.7 °F 43.7 °F 60% 29.88 in 10.0 mi ESE 4.6 mph - N/A   Clear
12:35 AM 57.6 °F 43.7 °F 60% 29.87 in 10.0 mi ESE 8.1 mph - N/A   Clear
12:55 AM 57.2 °F 43.9 °F 61% 29.86 in 10.0 mi SE 5.8 mph - N/A   Clear
1:15 AM 55.6 °F 43.9 °F 65% 29.85 in 10.0 mi ESE 4.6 mph - N/A   Clear
1:35 AM 53.2 °F 43.7 °F 70% 29.86 in 10.0 mi East 4.6 mph - N/A   Clear
1:55 AM 54.5 °F 43.7 °F 67% 29.86 in 10.0 mi East 3.5 mph - N/A   Clear
2:10 AM 53.6 °F 43.7 °F 69% 29.85 in 10.0 mi ENE 3.5 mph - N/A   Clear
2:35 AM 51.8 °F 43.2 °F 72% 29.84 in 10.0 mi ENE 3.5 mph - N/A   Clear
2:55 AM 50.2 °F 43.3 °F 77% 29.83 in 10.0 mi ENE 4.6 mph - N/A   Clear
3:15 AM 50.4 °F 43.2 °F 76% 29.82 in 10.0 mi ENE 10.4 mph - N/A   Clear
3:35 AM 50.9 °F 42.8 °F 74% 29.82 in 10.0 mi ENE 8.1 mph - N/A   Clear
3:55 AM 50.7 °F 42.8 °F 74% 29.82 in 10.0 mi East 8.1 mph - N/A   Clear
4:15 AM 51.1 °F 42.8 °F 73% 29.82 in 10.0 mi ENE 6.9 mph - N/A   Clear
4:35 AM 52.2 °F 42.8 °F 70% 29.83 in 10.0 mi East 5.8 mph - N/A   Clear
4:55 AM 50.4 °F 42.8 °F 75% 29.82 in 10.0 mi ENE 8.1 mph - N/A   Clear
5:15 AM 50.4 °F 42.6 °F 75% 29.82 in 10.0 mi ENE 8.1 mph - N/A   Clear
5:35 AM 50.0 °F 42.4 °F 75% 29.83 in 10.0 mi ENE 9.2 mph - N/A   Clear
5:55 AM 50.0 °F 42.3 °F 75% 29.83 in 10.0 mi ENE 8.1 mph - N/A   Clear
6:15 AM 49.3 °F 42.1 °F 76% 29.84 in 10.0 mi ENE 11.5 mph - N/A   Clear
6:35 AM 50.0 °F 41.9 °F 74% 29.83 in 10.0 mi East 10.4 mph - N/A   Clear
6:55 AM 50.4 °F 42.1 °F 73% 29.83 in 10.0 mi East 11.5 mph - N/A   Clear
7:15 AM 51.4 °F 42.3 °F 71% 29.83 in 10.0 mi East 12.7 mph 17.3 mph N/A   Clear
7:35 AM 52.7 °F 42.8 °F 69% 29.82 in 10.0 mi East 11.5 mph 20.7 mph N/A   Clear
7:55 AM 53.6 °F 42.8 °F 67% 29.83 in 10.0 mi East 12.7 mph 21.9 mph N/A   Clear
8:15 AM 54.9 °F 43.7 °F 66% 29.83 in 10.0 mi East 15.0 mph - N/A   Clear
8:35 AM 55.4 °F 43.9 °F 65% 29.84 in 10.0 mi East 15.0 mph 21.9 mph N/A   Clear
8:55 AM 56.3 °F 43.7 °F 63% 29.84 in 10.0 mi East 16.1 mph 24.2 mph N/A   Clear
9:15 AM 57.9 °F 44.4 °F 61% 29.85 in 10.0 mi ENE 15.0 mph 23.0 mph N/A   Clear
9:35 AM 58.5 °F 43.7 °F 58% 29.84 in 10.0 mi East 16.1 mph 20.7 mph N/A   Clear
9:55 AM 59.5 °F 43.9 °F 56% 29.83 in 10.0 mi East 15.0 mph 19.6 mph N/A   Clear
10:15 AM 60.8 °F 43.7 °F 53% 29.84 in 10.0 mi East 15.0 mph 21.9 mph N/A   Clear
10:35 AM 62.1 °F 43.9 °F 51% 29.83 in 10.0 mi East 16.1 mph 21.9 mph N/A   Clear
10:55 AM 64.0 °F 43.5 °F 47% 29.83 in 10.0 mi East 13.8 mph 20.7 mph N/A   Clear
11:15 AM 65.7 °F 44.2 °F 46% 29.83 in 10.0 mi ENE 13.8 mph 20.7 mph N/A   Clear
11:35 AM 66.6 °F 43.5 °F 43% 29.83 in 10.0 mi East 15.0 mph 25.3 mph N/A   Clear
11:55 AM 68.2 °F 43.7 °F 41% 29.83 in 10.0 mi East 16.1 mph 20.7 mph N/A   Clear
12:15 PM 69.4 °F 43.5 °F 39% 29.83 in 10.0 mi East 12.7 mph 18.4 mph N/A   Clear
12:35 PM 70.9 °F 43.7 °F 38% 29.82 in 10.0 mi East 11.5 mph 20.7 mph N/A   Clear
12:55 PM 71.6 °F 43.9 °F 37% 29.81 in 10.0 mi East 16.1 mph 19.6 mph N/A   Clear
1:15 PM 72.3 °F 43.5 °F 35% 29.80 in 10.0 mi East 16.1 mph 21.9 mph N/A   Clear
1:35 PM 72.9 °F 43.3 °F 35% 29.80 in 10.0 mi ESE 11.5 mph 21.9 mph N/A   Clear
1:55 PM 73.4 °F 43.5 °F 34% 29.80 in 10.0 mi East 11.5 mph 20.7 mph N/A   Clear
2:15 PM 73.4 °F 43.5 °F 34% 29.79 in 10.0 mi East 15.0 mph 20.7 mph N/A   Clear
2:35 PM 75.2 °F 43.5 °F 32% 29.78 in 10.0 mi ESE 12.7 mph 18.4 mph N/A   Clear
2:55 PM 75.6 °F 44.1 °F 32% 29.78 in 10.0 mi East 11.5 mph - N/A   Clear
3:15 PM 76.6 °F 43.3 °F 30% 29.78 in 10.0 mi ESE 13.8 mph 19.6 mph N/A   Clear
3:35 PM 77.0 °F 43.5 °F 30% 29.77 in 10.0 mi ESE 15.0 mph - N/A   Clear
3:55 PM 77.2 °F 44.8 °F 32% 29.77 in 10.0 mi ESE 10.4 mph 16.1 mph N/A   Clear
4:15 PM 77.4 °F 45.0 °F 32% 29.77 in 10.0 mi ESE 11.5 mph 16.1 mph N/A   Clear
4:35 PM 77.2 °F 45.7 °F 33% 29.76 in 10.0 mi East 12.7 mph 17.3 mph N/A   Clear
4:55 PM 78.6 °F 45.0 °F 30% 29.76 in 10.0 mi ESE 11.5 mph 16.1 mph N/A   Clear
5:15 PM 77.9 °F 44.1 °F 30% 29.75 in 10.0 mi ESE 9.2 mph 17.3 mph N/A   Clear
5:35 PM 77.4 °F 45.3 °F 32% 29.74 in 10.0 mi East 9.2 mph - N/A   Clear
5:55 PM 77.9 °F 44.2 °F 30% 29.74 in 10.0 mi East 9.2 mph - N/A   Clear
6:15 PM 77.9 °F 45.1 °F 31% 29.73 in 10.0 mi East 10.4 mph - N/A   Clear
6:35 PM 78.4 °F 45.0 °F 30% 29.72 in 10.0 mi NE 16.1 mph 19.6 mph N/A   Clear
6:55 PM 75.6 °F 46.2 °F 35% 29.72 in 10.0 mi ENE 12.7 mph 19.6 mph N/A   Clear
7:15 PM 74.3 °F 46.8 °F 37% 29.72 in 10.0 mi ENE 12.7 mph - N/A   Clear
7:35 PM 72.0 °F 46.2 °F 40% 29.73 in 10.0 mi ENE 11.5 mph - N/A   Clear
7:55 PM 70.5 °F 46.4 °F 42% 29.73 in 10.0 mi NE 10.4 mph - N/A   Clear
8:15 PM 68.9 °F 45.9 °F 44% 29.73 in 10.0 mi ENE 10.4 mph - N/A   Clear
8:35 PM 67.8 °F 45.7 °F 45% 29.73 in 10.0 mi ENE 10.4 mph - N/A   Clear
8:55 PM 65.5 °F 46.4 °F 50% 29.74 in 10.0 mi ENE 9.2 mph - N/A   Clear
9:15 PM 64.4 °F 46.4 °F 52% 29.74 in 10.0 mi ENE 6.9 mph - N/A   Clear
9:35 PM 63.3 °F 46.4 °F 54% 29.74 in 10.0 mi ENE 6.9 mph - N/A   Clear
9:55 PM 62.6 °F 46.4 °F 55% 29.75 in 10.0 mi ENE 8.1 mph - N/A   Clear
10:15 PM 61.7 °F 46.4 °F 57% 29.75 in 10.0 mi ENE 5.8 mph - N/A   Clear
10:35 PM 60.1 °F 46.4 °F 61% 29.75 in 10.0 mi ENE 6.9 mph - N/A   Clear
10:55 PM 59.7 °F 46.4 °F 61% 29.76 in 10.0 mi NE 6.9 mph - N/A   Clear
11:15 PM 58.1 °F 46.4 °F 65% 29.76 in 10.0 mi ENE 4.6 mph - N/A   Clear
11:35 PM 57.4 °F 46.4 °F 67% 29.76 in 10.0 mi ENE 6.9 mph - N/A   Clear
11:55 PM 56.8 °F 46.0 °F 67% 29.74 in 10.0 mi ENE 6.9 mph - N/A   Clear